Find Starlink 35768

NORAD ID: 66832 Int'l Des: 2025-280 Owner: SPXS Country: US Constellation: starlink operational
LEOCIRCULAR

Live Position

Loading 3D Globe...

About Starlink 35768

Description loading...

Upcoming Passes

Passes for default location (London). Set your location on the main map for personalized predictions.

Altitude History

Loading altitude history...

Two-Line Element Set

1 66832U 25280M 26104.80236470 .00002359 00000-0 20541-3 0 9999
2 66832 70.0015 243.4608 0002243 272.8352 87.2551 14.98335575 21480
Epoch: Apr 14, 2026 • Age: 16 hours

Current Status

Altitude 592.5 km
Velocity 7.56 km/s
Sub-Earth Point -58.06°S, 92.26°E
Launch Date Dec 2, 2025
Age 0.3 years
Type internet

Technical Details

Classification Payload
Mass 575.00 kg
Dry Mass 530.00 kg
Total Mass 575.00 kg
Length 0.30 m
Diameter 4.10 m
Span 29.00 m
Shape Box + pan
Manufacturer SPXS
Bus Type Starlink V2MO
Phase Status In Orbit
Owner/State SPXS/US

Most Searched